QPF
0.00 0.02 0.05 0.07 0.07 0.08 0.08 0.06 0.06 0.07 0.06 0.07 0.07 0.06 0.05 0.03 0.02 0.02 0.03 0.03 0.03 0.04 0.05 0.05 0.05 0.07 0.07 0.06 0.05 0.05 0.05 0.06 0.07 0.07 0.05 0.05 0.06 0.07 0.06 0.04 0.04 0.05 0.07
0.01 0.02 0.04 0.07 0.06 0.07 0.08 0.10 0.12 0.11 0.09 0.09 0.09 0.07 0.04 0.02 0.01 0.02 0.03 0.03 0.03 0.04 0.04 0.04 0.06 0.06 0.07 0.07 0.05 0.03 0.05 0.06 0.08 0.06 0.05 0.05 0.07 0.07 0.06 0.05 0.04 0.05 0.06
0.02 0.02 0.02 0.06 0.07 0.08 0.10 0.10 0.10 0.14 0.15 0.11 0.09 0.06 0.04 0.02 0.02 0.02 0.03 0.03 0.03 0.04 0.04 0.04 0.05 0.05 0.05 0.05 0.05 0.04 0.05 0.07 0.07 0.05 0.05 0.06 0.07 0.06 0.06 0.06 0.06 0.06 0.06
0.01 0.01 0.02 0.05 0.06 0.07 0.13 0.08 0.06 0.13 0.19 0.14 0.09 0.06 0.04 0.04 0.04 0.04 0.05 0.04 0.04 0.05 0.08 0.09 0.09 0.06 0.06 0.07 0.07 0.07 0.07 0.06 0.05 0.04 0.05 0.07 0.06 0.05 0.05 0.06 0.06 0.05 0.07
0.01 0.01 0.02 0.05 0.05 0.06 0.17 0.13 0.12 0.21 0.27 0.22 0.14 0.08 0.05 0.05 0.04 0.06 0.06 0.04 0.04 0.05 0.10 0.12 0.11 0.08 0.06 0.06 0.08 0.09 0.08 0.06 0.05 0.05 0.05 0.07 0.08 0.06 0.06 0.06 0.06 0.06 0.06
0.01 0.01 0.03 0.06 0.05 0.05 0.14 0.23 0.26 0.29 0.32 0.22 0.12 0.08 0.05 0.05 0.05 0.05 0.05 0.03 0.03 0.02 0.04 0.07 0.07 0.07 0.08 0.09 0.12 0.11 0.10 0.11 0.10 0.09 0.09 0.10 0.11 0.09 0.07 0.06 0.05 0.05 0.04
0.01 0.01 0.03 0.05 0.05 0.04 0.06 0.13 0.18 0.20 0.22 0.14 0.07 0.05 0.05 0.05 0.06 0.05 0.05 0.03 0.02 0.02 0.03 0.04 0.04 0.04 0.06 0.11 0.12 0.12 0.14 0.14 0.13 0.11 0.10 0.09 0.09 0.08 0.07 0.05 0.05 0.05 0.05
0.01 0.01 0.02 0.03 0.04 0.04 0.05 0.06 0.07 0.11 0.14 0.12 0.08 0.08 0.05 0.06 0.06 0.06 0.05 0.03 0.02 0.02 0.04 0.04 0.04 0.05 0.05 0.05 0.05 0.07 0.10 0.15 0.11 0.07 0.06 0.06 0.06 0.06 0.05 0.04 0.04 0.05 0.06
0.01 0.02 0.02 0.03 0.04 0.04 0.05 0.05 0.05 0.06 0.08 0.08 0.09 0.09 0.07 0.06 0.05 0.05 0.05 0.03 0.02 0.02 0.03 0.05 0.06 0.07 0.06 0.06 0.06 0.06 0.06 0.07 0.06 0.07 0.07 0.08 0.08 0.08 0.06 0.06 0.05 0.05 0.06
0.01 0.02 0.02 0.03 0.02 0.03 0.05 0.05 0.06 0.05 0.05 0.06 0.08 0.08 0.06 0.05 0.05 0.03 0.03 0.03 0.03 0.03 0.05 0.07 0.07 0.07 0.05 0.06 0.06 0.05 0.03 0.03 0.04 0.07 0.09 0.10 0.12 0.11 0.08 0.10 0.09 0.07 0.07
0.01 0.01 0.02 0.03 0.03 0.03 0.05 0.05 0.04 0.03 0.03 0.04 0.03 0.03 0.03 0.04 0.04 0.03 0.03 0.04 0.03 0.05 0.06 0.06 0.05 0.05 0.04 0.05 0.05 0.03 0.02 0.03 0.04 0.05 0.07 0.09 0.10 0.10 0.08 0.11 0.13 0.09 0.08
0.01 0.01 0.02 0.02 0.03 0.03 0.03 0.03 0.03 0.02 0.02 0.02 0.02 0.02 0.02 0.02 0.02 0.02 0.02 0.04 0.04 0.05 0.06 0.05 0.05 0.02 0.02 0.05 0.04 0.03 0.03 0.03 0.04 0.05 0.09 0.12 0.09 0.08 0.07 0.10 0.13 0.11 0.10
0.01 0.01 0.02 0.02 0.03 0.03 0.02 0.02 0.03 0.02 0.03 0.02 0.02 0.02 0.02 0.01 0.01 0.01 0.01 0.02 0.03 0.04 0.04 0.03 0.02 0.01 0.02 0.03 0.03 0.03 0.04 0.04 0.05 0.07 0.12 0.15 0.12 0.09 0.08 0.09 0.10 0.07 0.08
0.03 0.03 0.02 0.02 0.03 0.03 0.02 0.02 0.02 0.02 0.03 0.03 0.03 0.02 0.01 0.02 0.01 0.01 0.01 0.01 0.01 0.02 0.03 0.03 0.02 0.02 0.02 0.02 0.03 0.03 0.04 0.03 0.04 0.08 0.10 0.11 0.13 0.12 0.10 0.09 0.09 0.07 0.08
0.05 0.05 0.05 0.05 0.05 0.03 0.02 0.02 0.02 0.02 0.03 0.03 0.03 0.02 0.01 0.02 0.01 0.01 0.01 0.01 0.01 0.01 0.02 0.02 0.02 0.02 0.03 0.03 0.03 0.02 0.02 0.02 0.02 0.03 0.06 0.07 0.08 0.12 0.12 0.11 0.10 0.09 0.09
0.05 0.05 0.07 0.06 0.06 0.06 0.05 0.03 0.03 0.04 0.06 0.06 0.07 0.04 0.03 0.03 0.02 0.02 0.02 0.01 0.02 0.02 0.02 0.02 0.02 0.02 0.01 0.01 0.02 0.03 0.03 0.02 0.02 0.01 0.03 0.05 0.06 0.07 0.10 0.11 0.09 0.07 0.07
0.03 0.04 0.06 0.06 0.07 0.06 0.06 0.06 0.04 0.04 0.05 0.05 0.06 0.06 0.05 0.04 0.04 0.04 0.03 0.02 0.02 0.01 0.01 0.01 0.02 0.02 0.01 0.01 0.01 0.02 0.02 0.02 0.01 0.01 0.01 0.03 0.04 0.04 0.05 0.08 0.07 0.07 0.07
0.02 0.03 0.05 0.06 0.07 0.08 0.07 0.05 0.03 0.03 0.03 0.03 0.03 0.04 0.05 0.05 0.03 0.03 0.02 0.02 0.02 0.02 0.02 0.01 0.01 0.02 0.02 0.01 0.02 0.01 0.01 0.02 0.01 0.01 0.01 0.02 0.02 0.02 0.03 0.05 0.06 0.06 0.06
0.02 0.02 0.03 0.05 0.08 0.11 0.11 0.09 0.06 0.05 0.03 0.03 0.02 0.02 0.03 0.03 0.03 0.03 0.02 0.02 0.02 0.02 0.02 0.01 0.01 0.02 0.02 0.02 0.01 0.01 0.02 0.02 0.01 0.01 0.01 0.01 0.01 0.02 0.02 0.02 0.03 0.05 0.07
0.02 0.02 0.02 0.03 0.03 0.06 0.10 0.13 0.12 0.07 0.04 0.03 0.02 0.01 0.01 0.01 0.02 0.04 0.03 0.02 0.02 0.02 0.02 0.02 0.02 0.02 0.03 0.02 0.01 0.01 0.01 0.02 0.02 0.02 0.01 0.00 0.01 0.02 0.03 0.02 0.02 0.02 0.04
0.02 0.02 0.02 0.02 0.02 0.03 0.04 0.06 0.11 0.11 0.07 0.05 0.04 0.02 0.01 0.02 0.02 0.03 0.03 0.02 0.02 0.01 0.02 0.03 0.02 0.02 0.02 0.02 0.02 0.02 0.01 0.01 0.01 0.01 0.01 0.01 0.01 0.01 0.02 0.01 0.01 0.02 0.02
0.01 0.01 0.02 0.01 0.01 0.02 0.02 0.04 0.06 0.09 0.08 0.06 0.05 0.03 0.02 0.03 0.02 0.02 0.02 0.02 0.02 0.01 0.01 0.01 0.02 0.03 0.03 0.03 0.04 0.03 0.02 0.02 0.02 0.01 0.01 0.01 0.01 0.01 0.00 0.00 0.00 0.02 0.02
0.01 0.01 0.01 0.01 0.01 0.01 0.02 0.03 0.04 0.04 0.04 0.05 0.05 0.05 0.04 0.03 0.03 0.02 0.02 0.02 0.02 0.02 0.02 0.01 0.01 0.02 0.02 0.02 0.03 0.04 0.03 0.02 0.02 0.01 0.01 0.01 0.01 0.01 0.01 0.00 0.01 0.01 0.01
0.01 0.00 0.00 0.00 0.01 0.01 0.01 0.02 0.04 0.05 0.06 0.05 0.04 0.04 0.04 0.04 0.03 0.03 0.02 0.02 0.02 0.02 0.02 0.01 0.01 0.01 0.02 0.02 0.02 0.02 0.02 0.02 0.02 0.02 0.02 0.01 0.01 0.01 0.01 0.01 0.01 0.02 0.02
0.01 0.01 0.00 0.00 0.01 0.01 0.01 0.01 0.02 0.04 0.05 0.04 0.03 0.03 0.03 0.04 0.04 0.02 0.02 0.02 0.02 0.01 0.01 0.01 0.01 0.01 0.02 0.02 0.02 0.02 0.01 0.01 0.01 0.01 0.02 0.03 0.03 0.02 0.01 0.01 0.01 0.02 0.02
0.01 0.01 0.00 0.00 0.01 0.01 0.01 0.01 0.01 0.02 0.03 0.02 0.02 0.03 0.03 0.04 0.04 0.02 0.01 0.02 0.01 0.01 0.01 0.01 0.02 0.02 0.02 0.02 0.02 0.02 0.02 0.03 0.03 0.03 0.02 0.03 0.03 0.03 0.02 0.02 0.02 0.01 0.02
MSLP
1012.17 1011.98 1011.92 1011.99 1012.16 1012.38 1012.59 1012.73 1012.79 1012.75 1012.66 1012.56 1012.48 1012.47 1012.53 1012.64 1012.76 1012.86 1012.91 1012.88 1012.80 1012.68 1012.56 1012.47 1012.43 1012.43 1012.48 1012.53 1012.57 1012.59 1012.57 1012.54 1012.51 1012.51 1012.53 1012.57 1012.63 1012.68 1012.69 1012.66 1012.59 1012.48 1012.36
1012.22 1012.08 1012.06 1012.17 1012.37 1012.62 1012.84 1012.98 1013.02 1012.97 1012.86 1012.73 1012.64 1012.61 1012.67 1012.78 1012.91 1013.03 1013.09 1013.09 1013.03 1012.93 1012.83 1012.77 1012.75 1012.77 1012.82 1012.87 1012.89 1012.89 1012.85 1012.80 1012.76 1012.75 1012.79 1012.87 1012.96 1013.05 1013.09 1013.08 1013.00 1012.87 1012.72
1012.25 1012.16 1012.19 1012.33 1012.57 1012.84 1013.07 1013.23 1013.27 1013.22 1013.09 1012.96 1012.85 1012.82 1012.86 1012.96 1013.09 1013.20 1013.27 1013.27 1013.23 1013.16 1013.09 1013.05 1013.06 1013.11 1013.16 1013.21 1013.22 1013.19 1013.13 1013.05 1013.00 1012.99 1013.04 1013.14 1013.27 1013.39 1013.47 1013.47 1013.40 1013.26 1013.09
1012.26 1012.22 1012.29 1012.47 1012.74 1013.03 1013.28 1013.45 1013.51 1013.46 1013.35 1013.22 1013.11 1013.07 1013.10 1013.19 1013.30 1013.40 1013.45 1013.46 1013.43 1013.38 1013.35 1013.34 1013.38 1013.45 1013.52 1013.56 1013.56 1013.51 1013.41 1013.31 1013.24 1013.23 1013.29 1013.41 1013.56 1013.71 1013.81 1013.83 1013.77 1013.64 1013.46
1012.25 1012.25 1012.36 1012.57 1012.86 1013.17 1013.44 1013.62 1013.71 1013.68 1013.59 1013.48 1013.39 1013.35 1013.37 1013.44 1013.54 1013.62 1013.67 1013.67 1013.65 1013.63 1013.62 1013.65 1013.72 1013.80 1013.88 1013.92 1013.91 1013.83 1013.72 1013.60 1013.51 1013.49 1013.56 1013.69 1013.85 1014.02 1014.13 1014.17 1014.11 1013.98 1013.80
1012.23 1012.27 1012.41 1012.64 1012.94 1013.25 1013.53 1013.74 1013.84 1013.84 1013.78 1013.70 1013.63 1013.61 1013.64 1013.71 1013.79 1013.87 1013.91 1013.92 1013.91 1013.90 1013.92 1013.97 1014.06 1014.16 1014.25 1014.28 1014.26 1014.17 1014.05 1013.92 1013.82 1013.80 1013.87 1014.00 1014.17 1014.34 1014.45 1014.48 1014.43 1014.29 1014.10
1012.23 1012.29 1012.44 1012.68 1012.98 1013.29 1013.57 1013.78 1013.89 1013.93 1013.90 1013.86 1013.83 1013.83 1013.88 1013.96 1014.05 1014.13 1014.17 1014.19 1014.19 1014.20 1014.24 1014.31 1014.40 1014.51 1014.60 1014.64 1014.61 1014.52 1014.39 1014.26 1014.18 1014.16 1014.23 1014.36 1014.53 1014.68 1014.78 1014.80 1014.72 1014.57 1014.37
1012.25 1012.32 1012.48 1012.70 1012.98 1013.28 1013.54 1013.75 1013.87 1013.93 1013.94 1013.94 1013.95 1014.00 1014.08 1014.19 1014.29 1014.38 1014.44 1014.48 1014.49 1014.52 1014.56 1014.64 1014.74 1014.84 1014.93 1014.96 1014.93 1014.85 1014.73 1014.63 1014.56 1014.56 1014.63 1014.76 1014.92 1015.05 1015.12 1015.10 1015.00 1014.81 1014.58
1012.28 1012.36 1012.51 1012.72 1012.97 1013.24 1013.48 1013.67 1013.80 1013.87 1013.91 1013.95 1014.01 1014.10 1014.23 1014.37 1014.51 1014.63 1014.71 1014.76 1014.79 1014.82 1014.87 1014.95 1015.04 1015.13 1015.21 1015.24 1015.21 1015.15 1015.06 1014.98 1014.94 1014.96 1015.05 1015.19 1015.33 1015.44 1015.48 1015.42 1015.27 1015.04 1014.77
1012.31 1012.40 1012.54 1012.73 1012.96 1013.19 1013.40 1013.57 1013.69 1013.78 1013.85 1013.93 1014.03 1014.17 1014.34 1014.52 1014.69 1014.84 1014.95 1015.03 1015.07 1015.11 1015.16 1015.22 1015.30 1015.38 1015.44 1015.46 1015.45 1015.40 1015.34 1015.30 1015.30 1015.36 1015.47 1015.61 1015.75 1015.84 1015.84 1015.75 1015.55 1015.28 1014.97
1012.32 1012.42 1012.56 1012.73 1012.93 1013.13 1013.32 1013.48 1013.60 1013.70 1013.80 1013.91 1014.05 1014.22 1014.43 1014.65 1014.85 1015.03 1015.17 1015.26 1015.32 1015.37 1015.41 1015.46 1015.52 1015.58 1015.63 1015.65 1015.64 1015.62 1015.59 1015.59 1015.63 1015.72 1015.86 1016.02 1016.16 1016.23 1016.22 1016.10 1015.87 1015.56 1015.21
1012.28 1012.40 1012.54 1012.72 1012.90 1013.08 1013.26 1013.41 1013.54 1013.65 1013.77 1013.91 1014.08 1014.29 1014.52 1014.76 1015.00 1015.20 1015.35 1015.46 1015.54 1015.59 1015.64 1015.68 1015.73 1015.77 1015.80 1015.82 1015.83 1015.82 1015.83 1015.86 1015.93 1016.06 1016.23 1016.40 1016.55 1016.63 1016.61 1016.48 1016.24 1015.91 1015.53
1012.18 1012.33 1012.49 1012.66 1012.85 1013.04 1013.21 1013.37 1013.52 1013.66 1013.80 1013.97 1014.16 1014.39 1014.64 1014.89 1015.13 1015.34 1015.52 1015.64 1015.73 1015.80 1015.84 1015.89 1015.93 1015.97 1016.00 1016.03 1016.04 1016.05 1016.08 1016.14 1016.24 1016.39 1016.57 1016.77 1016.93 1017.03 1017.03 1016.91 1016.67 1016.34 1015.95
1012.01 1012.19 1012.37 1012.57 1012.77 1012.98 1013.17 1013.36 1013.54 1013.71 1013.89 1014.08 1014.29 1014.52 1014.77 1015.02 1015.27 1015.48 1015.66 1015.80 1015.91 1015.99 1016.06 1016.12 1016.17 1016.22 1016.27 1016.30 1016.32 1016.35 1016.39 1016.46 1016.58 1016.74 1016.93 1017.13 1017.31 1017.43 1017.45 1017.36 1017.16 1016.85 1016.47
1011.77 1011.99 1012.20 1012.43 1012.66 1012.90 1013.14 1013.37 1013.60 1013.81 1014.02 1014.23 1014.45 1014.68 1014.93 1015.17 1015.41 1015.62 1015.81 1015.97 1016.10 1016.20 1016.30 1016.39 1016.47 1016.55 1016.61 1016.67 1016.71 1016.75 1016.80 1016.87 1016.98 1017.13 1017.32 1017.52 1017.70 1017.84 1017.89 1017.84 1017.68 1017.41 1017.07
1011.48 1011.73 1011.98 1012.24 1012.52 1012.80 1013.10 1013.39 1013.67 1013.93 1014.17 1014.41 1014.64 1014.87 1015.10 1015.33 1015.55 1015.76 1015.96 1016.14 1016.30 1016.44 1016.58 1016.71 1016.84 1016.95 1017.05 1017.13 1017.20 1017.25 1017.30 1017.37 1017.46 1017.59 1017.75 1017.93 1018.10 1018.24 1018.32 1018.31 1018.20 1017.99 1017.69
1011.16 1011.44 1011.73 1012.03 1012.36 1012.70 1013.06 1013.41 1013.74 1014.05 1014.34 1014.59 1014.83 1015.05 1015.27 1015.49 1015.70 1015.92 1016.12 1016.32 1016.52 1016.71 1016.90 1017.08 1017.26 1017.42 1017.56 1017.68 1017.78 1017.84 1017.90 1017.95 1018.01 1018.10 1018.22 1018.36 1018.51 1018.64 1018.73 1018.75 1018.68 1018.52 1018.28
1010.84 1011.16 1011.48 1011.83 1012.20 1012.60 1013.02 1013.43 1013.82 1014.18 1014.49 1014.77 1015.01 1015.23 1015.44 1015.65 1015.86 1016.08 1016.31 1016.54 1016.77 1017.00 1017.24 1017.47 1017.70 1017.92 1018.11 1018.27 1018.39 1018.47 1018.53 1018.56 1018.60 1018.64 1018.71 1018.80 1018.90 1019.01 1019.09 1019.12 1019.09 1018.97 1018.78
1010.54 1010.90 1011.26 1011.65 1012.07 1012.52 1012.99 1013.46 1013.90 1014.29 1014.64 1014.93 1015.18 1015.40 1015.60 1015.81 1016.03 1016.26 1016.51 1016.77 1017.04 1017.32 1017.60 1017.87 1018.14 1018.40 1018.63 1018.82 1018.98 1019.08 1019.14 1019.17 1019.17 1019.17 1019.19 1019.22 1019.27 1019.33 1019.39 1019.42 1019.41 1019.33 1019.19
1010.28 1010.68 1011.09 1011.52 1011.98 1012.48 1012.99 1013.50 1013.97 1014.40 1014.76 1015.07 1015.32 1015.55 1015.76 1015.98 1016.21 1016.46 1016.74 1017.03 1017.33 1017.63 1017.94 1018.24 1018.54 1018.83 1019.08 1019.31 1019.48 1019.61 1019.68 1019.70 1019.69 1019.65 1019.62 1019.60 1019.59 1019.60 1019.63 1019.65 1019.64 1019.60 1019.50
1010.08 1010.52 1010.97 1011.44 1011.94 1012.47 1013.01 1013.55 1014.05 1014.49 1014.87 1015.18 1015.45 1015.68 1015.91 1016.14 1016.40 1016.68 1016.98 1017.29 1017.61 1017.94 1018.26 1018.57 1018.87 1019.16 1019.43 1019.67 1019.86 1020.01 1020.09 1020.12 1020.10 1020.05 1019.98 1019.91 1019.86 1019.83 1019.81 1019.81 1019.81 1019.78 1019.73
1009.92 1010.41 1010.90 1011.40 1011.93 1012.48 1013.05 1013.60 1014.11 1014.56 1014.95 1015.27 1015.55 1015.80 1016.04 1016.30 1016.59 1016.89 1017.22 1017.56 1017.89 1018.22 1018.53 1018.83 1019.12 1019.40 1019.66 1019.89 1020.10 1020.25 1020.36 1020.40 1020.39 1020.34 1020.25 1020.16 1020.07 1020.00 1019.96 1019.94 1019.93 1019.92 1019.90
1009.80 1010.34 1010.86 1011.39 1011.93 1012.50 1013.07 1013.62 1014.13 1014.59 1014.98 1015.32 1015.61 1015.88 1016.15 1016.44 1016.76 1017.09 1017.44 1017.79 1018.13 1018.45 1018.75 1019.02 1019.28 1019.52 1019.76 1019.99 1020.19 1020.36 1020.48 1020.55 1020.56 1020.52 1020.44 1020.33 1020.23 1020.14 1020.07 1020.04 1020.03 1020.03 1020.04
1009.72 1010.28 1010.82 1011.36 1011.92 1012.48 1013.05 1013.60 1014.11 1014.57 1014.97 1015.31 1015.62 1015.91 1016.21 1016.53 1016.88 1017.24 1017.62 1017.98 1018.32 1018.62 1018.89 1019.13 1019.35 1019.56 1019.77 1019.97 1020.17 1020.34 1020.48 1020.58 1020.62 1020.60 1020.54 1020.45 1020.34 1020.24 1020.16 1020.12 1020.10 1020.11 1020.14
1009.64 1010.22 1010.77 1011.31 1011.86 1012.42 1012.97 1013.52 1014.02 1014.48 1014.88 1015.24 1015.57 1015.89 1016.22 1016.56 1016.94 1017.33 1017.72 1018.09 1018.43 1018.72 1018.97 1019.18 1019.37 1019.54 1019.72 1019.90 1020.08 1020.26 1020.41 1020.53 1020.60 1020.62 1020.59 1020.51 1020.42 1020.32 1020.23 1020.18 1020.15 1020.16 1020.20
1009.57 1010.15 1010.69 1011.22 1011.75 1012.29 1012.84 1013.37 1013.87 1014.33 1014.74 1015.11 1015.46 1015.80 1016.15 1016.52 1016.92 1017.33 1017.73 1018.11 1018.45 1018.74 1018.98 1019.17 1019.33 1019.48 1019.63 1019.79 1019.96 1020.14 1020.31 1020.45 1020.55 1020.60 1020.59 1020.54 1020.46 1020.36 1020.27 1020.20 1020.16 1020.16 1020.18
Thickness
5769 5769 5765 5765 5765 5765 5765 5765 5765 5765 5764 5764 5764 5764 5764 5764 5765 5766 5766 5766 5767 5767 5767 5767 5767 5767 5767 5768 5768 5768 5768 5768 5768 5768 5768 5768 5767 5767 5767 5767 5768 5769 5769
5768 5767 5763 5763 5763 5763 5763 5763 5763 5762 5762 5761 5761 5761 5761 5761 5761 5762 5763 5763 5763 5763 5763 5764 5764 5764 5764 5764 5765 5765 5765 5765 5765 5765 5765 5765 5764 5764 5764 5764 5765 5766 5765
5767 5765 5763 5762 5761 5761 5761 5761 5761 5760 5759 5758 5758 5758 5758 5758 5758 5758 5759 5760 5760 5760 5760 5760 5760 5760 5760 5760 5761 5761 5761 5761 5762 5762 5763 5764 5763 5761 5761 5761 5762 5762 5762
5764 5763 5762 5759 5759 5758 5759 5760 5760 5758 5756 5755 5755 5755 5755 5754 5755 5755 5755 5755 5756 5756 5756 5756 5757 5757 5756 5756 5757 5757 5757 5758 5758 5760 5762 5762 5761 5758 5757 5758 5758 5759 5760
5762 5761 5758 5756 5756 5756 5756 5757 5757 5755 5753 5753 5753 5752 5751 5751 5751 5751 5751 5751 5752 5752 5752 5752 5753 5753 5753 5753 5753 5753 5754 5754 5755 5757 5758 5757 5756 5754 5754 5755 5755 5756 5756
5759 5758 5755 5753 5752 5752 5752 5752 5752 5750 5750 5751 5750 5749 5747 5747 5747 5747 5747 5747 5748 5748 5748 5748 5749 5749 5749 5749 5748 5749 5750 5751 5752 5753 5753 5753 5753 5751 5751 5751 5752 5753 5754
5757 5755 5753 5750 5749 5749 5749 5748 5747 5747 5747 5748 5748 5746 5744 5743 5743 5743 5743 5743 5743 5744 5744 5744 5744 5745 5744 5744 5744 5745 5746 5747 5750 5750 5750 5749 5748 5747 5748 5748 5749 5750 5750
5754 5752 5750 5747 5746 5746 5745 5744 5744 5743 5743 5743 5743 5742 5740 5740 5739 5739 5739 5739 5739 5740 5740 5740 5740 5740 5739 5740 5740 5741 5742 5743 5746 5747 5746 5745 5744 5744 5744 5745 5746 5746 5747
5751 5750 5749 5747 5745 5742 5742 5741 5740 5739 5739 5739 5738 5737 5736 5735 5735 5735 5735 5735 5735 5735 5735 5735 5735 5735 5735 5735 5735 5736 5737 5739 5743 5743 5743 5741 5740 5740 5741 5741 5742 5742 5743
5748 5747 5746 5745 5744 5742 5740 5737 5736 5735 5735 5734 5733 5732 5732 5732 5731 5731 5731 5730 5730 5730 5731 5730 5730 5730 5730 5730 5731 5732 5733 5736 5738 5739 5738 5737 5736 5737 5737 5738 5738 5738 5738
5744 5744 5744 5743 5741 5739 5738 5735 5734 5732 5731 5730 5730 5729 5729 5731 5730 5729 5727 5725 5725 5725 5725 5725 5725 5725 5726 5726 5727 5728 5730 5733 5733 5734 5732 5731 5731 5732 5733 5733 5734 5734 5734
5739 5740 5741 5739 5738 5737 5735 5734 5733 5731 5729 5729 5729 5728 5728 5727 5726 5725 5721 5721 5721 5721 5720 5720 5721 5722 5724 5725 5725 5725 5728 5728 5729 5729 5727 5726 5727 5728 5728 5728 5729 5730 5730
5737 5736 5737 5736 5734 5733 5732 5731 5730 5728 5726 5726 5726 5725 5724 5723 5722 5721 5721 5720 5719 5718 5719 5718 5720 5721 5722 5721 5722 5723 5723 5723 5724 5723 5721 5720 5721 5722 5723 5724 5724 5725 5726
5733 5732 5733 5732 5732 5731 5730 5728 5727 5726 5724 5723 5721 5721 5720 5719 5720 5719 5718 5716 5716 5716 5715 5716 5715 5717 5718 5718 5719 5718 5718 5718 5717 5716 5715 5714 5716 5717 5718 5718 5719 5720 5721
5729 5728 5728 5729 5728 5728 5726 5724 5723 5722 5721 5719 5717 5717 5717 5716 5716 5715 5714 5712 5712 5711 5711 5711 5712 5712 5713 5713 5713 5713 5713 5712 5712 5712 5710 5709 5710 5711 5712 5712 5713 5714 5714
5727 5726 5725 5725 5724 5724 5723 5721 5720 5719 5716 5716 5714 5714 5713 5712 5711 5710 5710 5708 5707 5706 5706 5707 5707 5706 5707 5707 5707 5707 5707 5707 5707 5707 5706 5705 5705 5705 5706 5706 5707 5708 5708
5725 5723 5722 5721 5720 5720 5718 5717 5716 5715 5713 5712 5711 5710 5710 5708 5707 5706 5706 5705 5703 5702 5702 5702 5703 5703 5702 5703 5702 5702 5702 5702 5703 5704 5703 5702 5702 5700 5700 5700 5701 5702 5702
5722 5720 5719 5718 5717 5716 5715 5713 5712 5711 5710 5708 5707 5706 5706 5705 5704 5702 5701 5701 5700 5699 5698 5698 5698 5698 5698 5698 5698 5698 5698 5697 5698 5699 5699 5699 5698 5697 5696 5695 5695 5696 5697
5718 5717 5716 5715 5713 5711 5710 5708 5707 5707 5705 5704 5703 5702 5702 5701 5700 5699 5697 5697 5696 5695 5695 5694 5694 5695 5693 5693 5693 5693 5694 5694 5694 5694 5695 5695 5694 5693 5693 5691 5691 5691 5692
5715 5714 5713 5711 5710 5708 5706 5705 5703 5702 5702 5700 5699 5698 5697 5696 5695 5694 5692 5692 5691 5690 5689 5690 5689 5689 5689 5689 5690 5689 5690 5690 5690 5690 5690 5690 5690 5690 5689 5689 5689 5688 5687
5711 5711 5709 5708 5707 5705 5703 5701 5699 5697 5697 5696 5694 5693 5691 5690 5689 5688 5687 5687 5686 5685 5685 5686 5685 5685 5685 5686 5685 5684 5685 5686 5686 5685 5686 5686 5686 5685 5685 5685 5685 5685 5685
5707 5707 5705 5704 5703 5702 5700 5699 5697 5695 5694 5692 5689 5688 5687 5685 5684 5683 5682 5682 5680 5679 5679 5680 5680 5680 5680 5682 5681 5680 5679 5680 5680 5681 5681 5681 5682 5681 5682 5682 5682 5681 5682
5703 5702 5702 5700 5699 5698 5697 5696 5694 5691 5689 5687 5684 5683 5682 5680 5679 5678 5677 5677 5676 5676 5675 5675 5675 5675 5675 5677 5678 5677 5675 5675 5675 5677 5677 5678 5677 5677 5678 5678 5678 5678 5678
5699 5699 5698 5697 5696 5694 5693 5692 5690 5686 5684 5683 5682 5679 5677 5676 5674 5673 5673 5673 5672 5672 5671 5671 5672 5672 5671 5671 5672 5673 5674 5674 5673 5671 5673 5674 5674 5674 5674 5674 5674 5674 5673
5696 5694 5694 5693 5692 5690 5689 5687 5685 5683 5682 5680 5677 5674 5673 5672 5670 5670 5669 5669 5668 5668 5668 5667 5668 5668 5668 5668 5669 5669 5669 5669 5673 5671 5668 5669 5670 5670 5671 5670 5670 5670 5669
5691 5690 5689 5688 5687 5686 5684 5683 5681 5678 5676 5674 5671 5669 5669 5668 5667 5666 5665 5665 5664 5664 5664 5663 5663 5663 5664 5665 5665 5666 5666 5666 5667 5668 5667 5666 5665 5666 5666 5666 5666 5665 5664